Powrót do katalogu

COSMOS 1375 DEB

AktywnyLEO
NORAD 18560·DEBRIS·🇷🇺 Russia

Wystrzelony Jun 6, 1982 z Plesetsk Cosmodrome

Loading…

Następne Przeloty (najbliższe 24 godziny)

TLE

ŚwieżeSource: Space-Track

Epoka: Sep 14, 2026, 14:17 UTC

1 18560U 82055BH  26257.59528045  .00000036  00000-0  13022-3 0  9990
2 18560  65.8297 240.5603 0043499 349.8418 113.2853 13.70080419950645

Śledź COSMOS 1375 DEB w czasie rzeczywistym z AllMySat

Download on the App Store